Preview of NWS' New Version of Forecast
This preview is not operational and should not be used for support decisions.

Regional Weather Roundup (RWR)

Issued by National Weather Service (NWS)

                            
000
ASUS43 KTOP 171808
RWRKS 

WEATHER ROUNDUP FOR KANSAS
NATIONAL WEATHER SERVICE GOODLAND KS
100 PM CDT WED JUL 17 2019

NOTE:  "FAIR" INDICATES FEW OR NO CLOUDS BELOW 12,000 FEET WITH NO
SIGNIFICANT WEATHER AND/OR OBSTRUCTIONS TO VISIBILITY.

KSZ001>006-013>018-027>032-041>047-171900-
NORTHWEST KANSAS
  
CITY           SKY/WX    TMP DP  RH WIND       PRES   REMARKS
GOODLAND       MOSUNNY   97  57  26 W10       29.87S HX  96           
6HR MIN TEMP:  69; 6HR MAX TEMP:  99;                                

HAYS           SUNNY    100  66  32 S20G29    29.81S HX 104           
HILL CITY      SUNNY    100  61  27 SW17G25   29.79F HX 101           
6HR MIN TEMP:  75; 6HR MAX TEMP: 101;                                

RUSSELL        SUNNY    101  66  31 S23G35    29.80F HX 105           
6HR MIN TEMP:  76; 6HR MAX TEMP: 101;                                

$$

KSZ061>065-074>080-084>089-171900-
SOUTHWEST KANSAS
  
CITY           SKY/WX    TMP DP  RH WIND       PRES   REMARKS
DODGE CITY     SUNNY     96  64  34 S20G30    29.89F HX  98           
6HR MIN TEMP:  75; 6HR MAX TEMP:  96;                                

ELKHART        MOSUNNY   96  64  33 S15G22    29.94F HX  98           
GARDEN CITY    SUNNY     96  62  32 S22G29    29.88F HX  97           
6HR MIN TEMP:  71; 6HR MAX TEMP:  97;                                

GREAT BEND       N/A     92  72  51 S20G28    29.85S HX  99           
LIBERAL        SUNNY     97  65  34 SW21G26   29.92F HX  99           
PRATT          SUNNY     97  67  36 S22       29.89F HX 101           
6HR MIN TEMP:  75; 6HR MAX TEMP:  97;                                

$$

KSZ066>073-081>083-090>101-171900-
SOUTHEAST KANSAS
  
CITY           SKY/WX    TMP DP  RH WIND       PRES   REMARKS
CHANUTE        SUNNY     94  76  55 S18G25    29.94F HX 106           
6HR MIN TEMP:  81; 6HR MAX TEMP:  95;                                

COFFEYVILLE    SUNNY     94  75  54 S15       29.94S HX 105           
6HR MIN TEMP:  79; 6HR MAX TEMP:  94;                                

HUTCHINSON     SUNNY     98  70  40 S24       29.86F HX 105           
6HR MIN TEMP:  77; 6HR MAX TEMP:  98;                                

MEDICINE LODGE   N/A     98  69  38 S17G29    29.87F HX 104           
NEWTON         SUNNY     95  73  48 SW23      29.89F HX 104           
PARSONS        SUNNY     92  76  59 S14G22    29.96S HX 104           
6HR MIN TEMP:  79; 6HR MAX TEMP:  94;                                

WICHITA INTL   MOSUNNY   97  72  44 SW18G30   29.88F HX 105           
6HR MIN TEMP:  78; 6HR MAX TEMP:  97;                                

WICHITA JABRA  SUNNY     97  72  44 S18G29    29.89S HX 105           
6HR MIN TEMP:  77; 6HR MAX TEMP:  97;                                

WICHITA MCCONL SUNNY     96  70  42 SE20G29   29.90F HX 102           
WINFIELD       SUNNY     94  73  50 S15G25    29.93F HX 103           
6HR MIN TEMP:  76; 6HR MAX TEMP:  94;                                

$$

KSZ007>012-019>026-033>040-048>060-102>105-171900-
NORTHEAST KANSAS
  
CITY           SKY/WX    TMP DP  RH WIND       PRES   REMARKS
CONCORDIA      SUNNY     96  72  45 S14       29.81R HX 104           
6HR MIN TEMP:  80; 6HR MAX TEMP:  97; 6HR PCP: TRACE;                

EMPORIA        SUNNY     94  75  54 S18G29    29.89F HX 105           
6HR MIN TEMP:  75; 6HR MAX TEMP:  94;                                

LAWRENCE       SUNNY     95  75  52 S10       29.89R HX 107           
6HR MIN TEMP:  77; 6HR MAX TEMP:  95; 6HR PCP: TRACE;                

MANHATTAN      SUNNY     97  73  45 S14       29.83S HX 107           
6HR MIN TEMP:  80; 6HR MAX TEMP:  97; 6HR PCP: TRACE;                

MARYSVILLE     SUNNY     91  77  62 S13G21    29.83F HX 105           
OLATHE IND     SUNNY     92  76  59 S15G24    29.92R HX 104           
6HR MIN TEMP:  76; 6HR MAX TEMP:  92;                                

OLATHE EXE     SUNNY     89  78  70 S14G21    29.91S HX 103           
6HR MIN TEMP:  75; 6HR MAX TEMP:  89;                                

SALINA         SUNNY     99  70  38 S20G33    29.82F HX 106           
6HR MIN TEMP:  80; 6HR MAX TEMP:  99;                                

TOPEKA BILLARD SUNNY     92  76  59 S13       29.87S HX 104           
6HR MIN TEMP:  78; 6HR MAX TEMP:  92; 6HR PCP: TRACE;                

TOPEKA FORBES  MOSUNNY   91  74  57 S16G23    29.88R HX 100           
6HR MIN TEMP:  79; 6HR MAX TEMP:  93; 6HR PCP: TRACE;                

$$